Regional Weather Roundup
Issued by NWS

Home | Current Version | Previous Version | Text Only | Print | Product List | Glossary On
Versions: 1 2 3 4 5 6 7 8 9 10 11 12 13 14 15 16 17 18 19 20 21 22 23 24 25 26 27 28 29 30 31 32 33 34 35 36 37 38 39 40 41 42 43 44 45 46 47 48 49 50
000
ASUS43 KDMX 062001
RWRIA

WEATHER ROUNDUP FOR IOWA
NATIONAL WEATHER SERVICE DES MOINES IA
200 PM CST TUE DEC 06 2016

NOTE: "FAIR" INDICATES FEW OR NO CLOUDS BELOW 12,000 FEET WITH NO
SIGNIFICANT WEATHER AND/OR OBSTRUCTIONS TO VISIBILITY.

* - THESE STATIONS ARE NOT NWS STATIONS...THUS NOT UNDER NWS
QUALITY CONTROL.  THEY ALSO DO NOT REPORT WEATHER SUCH
AS PRECIPITATION OR FOG.

IAZ001>003-012>014-020>022-031>034-043>046-062100-
   NORTHWEST IOWA

CITY           SKY/WX    TMP DP  RH WIND       PRES   REMARKS
LE MARS *      PTSUNNY   28  12  50 W23G30    29.94S WCI  14
SIOUX CITY     SUNNY     31  11  43 NW24G32   29.93F WCI  17
SPENCER        CLOUDY    25  13  60 W37G43    29.85S WCI   7
$$

IAZ055>058-069>071-079>083-090>094-062100-
   SOUTHWEST IOWA

CITY           SKY/WX    TMP DP  RH WIND       PRES   REMARKS
CLARINDA *     SUNNY     36  14  41 NW18      30.02S WCI  25
LAMONI         SUNNY     34  17  50 W14       29.96F WCI  25
SHENANDOAH *   SUNNY     36  12  38 W16G23    30.02S WCI  26
$$

IAZ047>049-059>061-072>074-084-062100-
   CENTRAL IOWA

CITY           SKY/WX    TMP DP  RH WIND       PRES   REMARKS
AMES           SUNNY     30  20  66 W23G29    29.91S WCI  17
BOONE *        MOSUNNY   30  18  59 W23G31    29.89R WCI  17
CHARITON *       N/A     34  16  47 W14G22    29.94S WCI  24
DES MOINES     MOSUNNY   34  14  43 W20G26    29.93S WCI  23
GRINNELL*      SUNNY     31  21  65 W20G26    29.90S WCI  19
MARSHALLTOWN   MOSUNNY   30  20  66 W24G30    29.88S WCI  16
NEWTON *       SUNNY     30  19  64 W22G28    29.91S WCI  17
PELLA *        SUNNY     33  17  52 W14G23    29.93F WCI  23
$$

IAZ004>006-015-016-023>025-035-036-062100-
   NORTH CENTRAL IOWA

CITY           SKY/WX    TMP DP  RH WIND       PRES   REMARKS
ALGONA *       MOSUNNY   27  16  63 W28G35    29.84S WCI  11
CLARION *      MOSUNNY   27  18  69 W30       29.86R WCI  10
ESTHERVILLE    PTSUNNY   22  13  68 W31G39    29.82S WCI   4
FORT DODGE *   SUNNY     28  14  54 W17G30    29.89S WCI  16
MASON CITY     PTSUNNY   25  14  63 W26G39    29.83S WCI   9
WEBSTER CITY * MOSUNNY   28  19  69 W24G31    29.86S WCI  14
$$

IAZ007>011-017>019-026>030-037>042-050>054-066-062100-
   NORTHEAST IOWA

CITY           SKY/WX    TMP DP  RH WIND       PRES   REMARKS
CEDAR RAPIDS   SUNNY     30  22  72 NW20G29   29.87R WCI  17
CHARLES CITY * CLOUDY    25  18  74 W21G32    29.83S WCI  10
CLINTON *      SUNNY     32  24  72 W22       29.85R WCI  19
DUBUQUE        SUNNY     28  20  71 W16       29.82R WCI  16
MONTICELLO *   MOSUNNY   30  23  74 W20       29.85R WCI  18
OELWEIN *      PTSUNNY   25  19  80 W21G29    29.84R WCI  10
WATERLOO       PTSUNNY   28  18  66 W22G30    29.86S WCI  14
$$

IAZ064-065-067-068-078-062100-
   EAST CENTRAL IOWA

CITY           SKY/WX    TMP DP  RH WIND       PRES   REMARKS
DAVENPORT      SUNNY     33  24  69 W23       29.87R WCI  21
IOWA CITY      SUNNY     34  22  61 W18G26    29.91R WCI  23
QUAD CITIES    SUNNY     36  24  62 W13       29.87R WCI  27
$$

IAZ062-063-075>077-085>089-095>099-062100-
   SOUTHEAST IOWA

CITY           SKY/WX    TMP DP  RH WIND       PRES   REMARKS
BURLINGTON     SUNNY     37  26  64 W14       29.91R WCI  28
FAIRFIELD *    SUNNY     34  19  55 W17       29.92R WCI  23
KEOKUK *       SUNNY     39  25  56 W16       29.92S WCI  30
OTTUMWA        SUNNY     35  17  47 W13       29.93S WCI  26
$$

ABBREVIATIONS USED IN REMARKS
   TC - TEMPERATURES IN CELSIUS
  WCI - WIND CHILL INDEX
   HX - HEAT INDEX
  VSB - VISIBILITY
$$





USA.gov is the U.S. government's official web portal to all federal, state and local government web resources and services.